GW1419 Weather Reports


time (UTC)temp
C
wind
direction
speed
KPH
gust
KPH
rain 1hr
cm
rain 24hr
cm
rain mn
cm
humidity
%
barometer
mb
20260906140002 27 9 6.4 9.7 0.00 0.00 0.00 85 1012.8
20260906134600 27 35 3.2 8.0 0.00 0.00 0.00 87 1012.8
20260906133054 26 28 4.8 12.9 0.00 0.00 0.00 89 1012.8
20260906131551 25 5 4.8 9.7 0.00 0.00 0.00 92 1012.8
20260906130052 25 5 3.2 4.8 0.00 0.00 0.00 95 1012.7
20260906124550 24 5 0.0 4.8 0.00 0.00 0.00 95 1012.6
20260906123046 23 5 0.0 1.6 0.00 0.00 0.00 94 1012.5
20260906121545 23 5 0.0 0.0 0.00 0.00 0.00 92 1012.2
20260906120049 23 5 0.0 0.0 0.00 0.00 0.00 92 1012.1
20260906114542 23 5 0.0 3.2 0.00 0.00 0.00 93 1012.0
20260906113039 23 5 0.0 3.2 0.00 0.00 0.00 92 1011.8
20260906111539 23 5 0.0 1.6 0.00 0.00 0.00 92 1011.5
20260906110041 23 5 0.0 0.0 0.00 0.00 0.00 91 1011.1
20260906104535 23 5 0.0 3.2 0.00 0.00 0.00 92 1011.1
20260906103034 23 5 0.0 0.0 0.00 0.00 0.00 92 1011.2
20260906101533 23 5 0.0 0.0 0.00 0.00 0.00 92 1011.2
20260906100032 23 5 0.0 0.0 0.00 0.00 0.00 91 1011.2
20260906094552 23 5 0.0 4.8 0.00 0.00 0.00 92 1011.1
20260906093037 23 5 1.6 4.8 0.00 0.00 0.00 91 1011.0
20260906091539 23 5 1.6 4.8 0.00 0.00 0.00 91 1011.0
20260906090030 23 5 1.6 8.0 0.00 0.00 0.00 91 1010.9
20260906084535 23 5 3.2 9.7 0.00 0.00 0.00 90 1010.9
20260906083034 23 210 0.0 0.0 0.00 0.00 0.00 89 1010.8
20260906081542 23 210 0.0 0.0 0.00 0.00 0.00 89 1010.7
20260906080026 23 210 0.0 0.0 0.00 0.00 0.00 89 1010.7
20260906074525 24 210 0.0 0.0 0.00 0.00 0.00 89 1010.8
20260906073025 24 210 0.0 0.0 0.00 0.00 0.00 89 1010.9
20260906071522 24 210 0.0 0.0 0.00 0.00 0.00 89 1011.0
20260906070021 24 210 0.0 0.0 0.00 0.00 0.00 88 1010.9
20260906064521 24 210 0.0 0.0 0.00 0.00 0.00 87 1010.9
20260906063022 25 210 0.0 0.0 0.00 0.00 0.00 87 1011.0
20260906061531 25 210 0.0 0.0 0.00 0.00 0.00 86 1011.0
20260906060017 25 210 0.0 1.6 0.00 0.00 0.00 86 1011.0
20260906054516 25 210 0.0 0.0 0.00 0.00 0.00 85 1011.1
20260906053016 25 210 0.0 1.6 0.00 0.00 0.00 86 1011.1
20260906051508 25 210 0.0 0.0 0.00 0.00 0.00 83 1010.8
20260906050006 25 210 0.0 0.0 0.00 0.00 0.00 83 1010.8
20260906044505 26 210 0.0 0.0 0.00 0.00 0.00 83 1010.8
20260906043005 26 210 0.0 0.0 0.00 0.00 0.00 83 1010.9
20260906041504 26 210 0.0 0.0 0.00 0.00 0.00 82 1011.0
20260906040004 26 210 0.0 0.0 0.00 0.00 0.00 82 1010.9
20260906034503 26 210 0.0 0.0 0.00 0.00 0.00 81 1010.8
20260906033002 26 210 0.0 0.0 0.00 0.00 0.00 80 1010.9
20260906031502 27 210 0.0 0.0 0.00 0.00 0.00 79 1011.1
20260906030002 27 210 0.0 0.0 0.00 0.00 0.00 78 1011.1
20260906024603 27 210 0.0 0.0 0.00 0.00 0.00 77 1011.0
20260906023102 28 210 1.6 6.4 0.00 0.00 0.00 77 1011.0
20260906021606 28 209 3.2 4.8 0.00 0.00 0.00 75 1010.6
20260906014601 30 210 0.0 9.7 0.00 0.00 0.00 71 1010.1
20260906013058 30 114 0.0 0.0 0.00 0.00 0.00 68 1009.9
20260906011602 31 114 0.0 0.0 0.00 0.00 0.00 64 1009.9
20260906010106 32 114 0.0 0.0 0.00 0.00 0.00 61 1009.5
20260906004600 34 114 0.0 1.6 0.00 0.00 0.00 57 1009.6
20260906003059 35 114 1.6 4.8 0.00 0.00 0.00 52 1009.5
20260906001605 36 114 0.0 3.2 0.00 0.00 0.00 48 1009.7
20260906000050 37 114 1.6 4.8 0.00 0.00 0.00 47 1009.7
20260905234549 37 114 0.0 0.0 0.00 0.00 0.00 47 1009.7
20260905233050 38 114 1.6 4.8 0.00 0.00 0.00 45 1009.7
20260905231547 38 119 1.6 9.7 0.00 0.00 0.00 44 1009.7
20260905230052 40 111 8.0 12.9 0.00 0.00 0.00 42 1009.7
20260905224556 40 238 0.0 0.0 0.00 0.00 0.00 44 1009.7
20260905223046 39 238 0.0 4.8 0.00 0.00 0.00 43 1009.7
20260905221547 39 238 0.0 6.4 0.00 0.00 0.00 44 1009.6
20260905220043 39 185 1.6 4.8 0.00 0.00 0.00 42 1009.7
20260905214541 39 89 0.0 11.3 0.00 0.00 0.00 43 1009.7
20260905213041 40 157 3.2 9.7 0.00 0.00 0.00 42 1009.7
20260905211545 40 290 0.0 0.0 0.00 0.00 0.00 40 1009.7
20260905210053 40 290 0.0 4.8 0.00 0.00 0.00 40 1010.0
20260905204533 40 285 0.0 8.0 0.00 0.00 0.00 39 1010.3
20260905203033 40 342 0.0 6.4 0.00 0.00 0.00 42 1010.7
20260905201527 39 10 1.6 12.9 0.00 0.00 0.00 40 1010.9
20260905200030 39 40 0.0 6.4 0.00 0.00 0.00 44 1011.0
20260905194520 38 64 0.0 6.4 0.00 0.00 0.00 43 1011.3
20260905193017 38 65 1.6 8.0 0.00 0.00 0.00 44 1011.4
20260905191514 38 31 1.6 8.0 0.00 0.00 0.00 44 1011.7
20260905190011 38 292 1.6 4.8 0.00 0.00 0.00 45 1012.0
20260905184509 38 267 3.2 6.4 0.00 0.00 0.00 46 1012.2
20260905183007 38 292 0.0 8.0 0.00 0.00 0.00 48 1012.2
20260905181503 38 284 3.2 9.7 0.00 0.00 0.00 47 1012.2
20260905174602 37 285 1.6 6.4 0.00 0.00 0.00 51 1012.4
20260905173055 37 344 0.0 8.0 0.00 0.00 0.00 53 1012.6
20260905171604 37 324 1.6 6.4 0.00 0.00 0.00 54 1012.8
20260905170056 37 324 3.2 8.0 0.00 0.00 0.00 54 1012.9
20260905164548 36 311 1.6 6.4 0.00 0.00 0.00 56 1013.2
20260905163046 36 329 0.0 6.4 0.00 0.00 0.00 58 1013.5
20260905161544 35 298 0.0 6.4 0.00 0.00 0.00 59 1013.6
20260905160047 35 247 0.0 6.4 0.00 0.00 0.00 62 1013.5
20260905154550 33 340 0.0 8.0 0.00 0.00 0.00 64 1013.6
20260905153033 33 298 0.0 6.4 0.00 0.00 0.00 67 1013.6
20260905151530 33 257 0.0 4.8 0.00 0.00 0.00 70 1013.6
20260905150025 31 257 0.0 4.8 0.00 0.00 0.00 75 1013.6
20260905144534 30 257 0.0 3.2 0.00 0.00 0.00 77 1013.7
20260905143017 29 257 0.0 3.2 0.00 0.00 0.00 82 1013.7
20260905141512 28 257 0.0 4.8 0.00 0.00 0.00 84 1013.7